,

(GMT )
Goderich

Weather History for CWGD - November, 2012

Change the Weather History Date:

Thursday, November 15, 2012

  Actual Average Record
Temperature  
Mean Temperature 34 °F -  
Max Temperature 41 °F - - ()
Min Temperature 26 °F - - ()
Degree Days  
Heating Degree Days 30    
Moisture  
Dew Point 27 °F    
Average Humidity 75    
Maximum Humidity 99    
Minimum Humidity 53    
Precipitation  
Precipitation 0.00 in - - ()
Sea Level Pressure  
Sea Level Pressure 30.39 in    
Wind  
Wind Speed 4 mph ()    
Max Wind Speed 7 mph    
Max Gust Speed -    
T = Trace of Precipitation, MM = Missing Value Source: Averaged Metar Reports

Daily Weather History Graph

Daily Weather History Graph

Search for Another Location

Airport or City:

Trip Planner

Search our weather history database for the weather conditions in past years. The results will help you decide how hot, cold, wet, or windy it might be!

Date:

Astronomy

Nov. 15, 2012 Rise Set
Actual Time 7:21 AM EST 5:00 PM EST
Civil Twilight 6:50 AM EST 5:31 PM EST
Nautical Twilight 6:15 AM EST 6:06 PM EST
Astronomical Twilight 5:41 AM EST 6:40 PM EST
Moon 9:18 AM EST (11/15) 6:48 PM EST (11/15)
Length of Visible Light 10h 41m
Length of Day
9h 38m
Waxing Crescent, 5% of the Moon is Illuminated
Nov 15
Waxing Crescent
Nov 20
First Quarter
Nov 28
Full
Dec 6
Last Quarter
Dec 13
New

Hourly Weather History & Observations

Time (EST) Temp. Windchill Dew Point Humidity Pressure Visibility Wind Dir Wind Speed Gust Speed Precip Events Conditions
12:00 AM 29.3 °F 24.3 °F 25.9 °F 87% 30.47 in - ESE 4.6 mph - N/A   Unknown
1:00 AM 32 °F - 26 °F 68% 30.45 in - ESE 4.6 mph - -  
1:00 AM 31.8 °F 27.3 °F 25.5 °F 78% 30.45 in - ESE 4.6 mph - N/A   Unknown
2:00 AM 31.1 °F 26.4 °F 26.8 °F 84% 30.45 in - ESE 4.6 mph - N/A   Unknown
3:00 AM 31.3 °F 25.6 °F 26.2 °F 82% 30.45 in - East 5.8 mph - N/A   Unknown
4:00 AM 31.5 °F 24.9 °F 25.7 °F 79% 30.42 in - East 6.9 mph - N/A   Unknown
5:00 AM 29.3 °F 23.2 °F 25.2 °F 85% 30.42 in - East 5.8 mph - N/A   Unknown
6:00 AM 29.8 °F 23.0 °F 25.5 °F 84% 30.41 in - East 6.9 mph - N/A   Unknown
7:00 AM 30 °F - 25 °F 74% 30.42 in - East 6.9 mph - -  
7:00 AM 29.7 °F 22.8 °F 25.0 °F 83% 30.42 in - East 6.9 mph - N/A   Unknown
8:00 AM 30.0 °F 23.2 °F 25.7 °F 84% 30.42 in - East 6.9 mph - N/A   Unknown
9:00 AM 34.9 °F 29.0 °F 27.3 °F 74% 30.42 in - ESE 6.9 mph - N/A   Unknown
10:00 AM 36.0 °F 30.3 °F 27.9 °F 72% 30.43 in - ESE 6.9 mph - N/A   Unknown
11:00 AM 39.9 °F 37.8 °F 28.0 °F 63% 30.42 in - ESE 3.5 mph - N/A   Unknown
12:00 PM 40.1 °F 38.0 °F 27.9 °F 62% 30.39 in - WNW 3.5 mph - N/A   Unknown
1:00 PM 41 °F - 30 °F 53% 30.36 in - West 5.8 mph - -  
1:00 PM 40.8 °F 36.9 °F 29.8 °F 65% 30.36 in - West 5.8 mph - N/A   Unknown
2:00 PM 40.1 °F 36.1 °F 28.9 °F 64% 30.35 in - West 5.8 mph - N/A   Unknown
3:00 PM 40.3 °F 37.1 °F 30.0 °F 67% 30.34 in - West 4.6 mph - N/A   Unknown
4:00 PM 39.6 °F 37.4 °F 30.0 °F 69% 30.35 in - West 3.5 mph - N/A   Unknown
5:00 PM 38.1 °F - 29.3 °F 71% 30.35 in - SW 2.3 mph - N/A   Unknown
6:00 PM 31.3 °F - 27.9 °F 87% 30.36 in - Calm Calm - N/A   Unknown
7:00 PM 29 °F - - % 30.36 in - ESE 1.2 mph - -  
7:00 PM - - - N/A% 30.36 in - ESE 1.2 mph - N/A   Unknown
8:00 PM - - - N/A% 30.36 in - ESE 1.2 mph - N/A   Unknown
9:00 PM - - - N/A% 30.35 in - SE 1.2 mph - N/A   Unknown
10:00 PM - - - N/A% 30.36 in - ESE 2.3 mph - N/A   Unknown
11:00 PM 26.1 °F - 25.9 °F 99% 30.36 in - SE 2.3 mph - N/A   Unknown